Wind_Speed
47 43 45 48 49 52 53 53 55 55 54 56 55 54 56 59 61 66 67 68 68 64 59 57 58 59 60 62 63 65 69 73 76 62 67 68 68 67 67 70 72 72 71
43 46 48 51 49 51 52 52 52 53 55 56 55 56 59 62 64 66 67 64 62 62 60 61 62 64 65 67 69 71 74 77 81 78 73 75 74 75 76 76 76 75 75
44 46 46 48 49 48 44 44 47 46 50 55 60 61 62 65 65 64 62 59 61 62 64 66 69 70 72 74 76 78 79 81 82 82 79 79 80 80 80 80 79 78 76
46 48 49 48 44 43 44 44 48 52 56 59 62 63 65 66 65 64 63 65 67 68 70 73 76 79 80 82 82 83 83 84 86 88 88 86 88 87 87 85 82 79 76
45 45 42 35 37 42 46 49 52 57 60 63 65 67 66 66 67 68 69 70 71 73 76 80 82 85 87 87 87 88 90 92 93 94 94 93 90 88 83 82 80 77 73
39 32 34 36 42 46 53 55 60 62 64 65 65 64 65 67 69 70 73 75 78 81 83 86 89 89 89 90 92 94 97 98 99 103 102 99 92 86 83 80 79 80 78
38 37 39 45 51 56 59 61 63 62 62 60 62 64 68 70 74 77 80 82 85 86 87 88 90 93 96 98 99 102 104 105 102 98 95 91 91 89 88 88 86 82 79
37 42 48 53 57 59 61 61 58 58 59 62 67 70 73 77 80 84 85 86 87 88 91 93 96 100 103 105 107 107 104 100 99 100 100 97 97 97 97 96 95 88 81
46 52 54 58 60 62 58 55 56 60 64 68 72 76 80 83 86 88 89 90 91 93 97 100 104 106 109 107 107 106 102 100 102 103 104 105 106 107 103 92 88 85 82
54 57 60 61 57 53 55 58 62 66 70 74 80 84 85 88 90 92 95 97 99 101 104 106 107 106 105 105 107 109 108 105 106 108 111 114 115 109 95 86 88 93 92
58 58 53 50 51 57 61 65 68 72 77 82 85 87 88 91 95 99 102 105 107 107 107 106 104 105 106 106 108 113 116 119 119 120 119 114 98 85 79 75 69 66 66
48 46 51 55 59 64 69 72 76 81 84 85 86 89 93 97 100 102 103 102 103 104 103 104 105 105 109 111 114 118 119 116 109 99 89 77 69 66 60 52 50 52 54
49 54 58 63 66 71 75 79 82 84 85 88 90 94 97 101 102 100 99 99 103 106 107 109 111 111 113 116 117 115 105 92 82 75 70 66 58 48 43 41 42 43 48
56 60 64 69 72 76 78 81 84 87 89 93 96 99 100 100 98 98 102 104 107 110 112 114 117 120 120 118 107 90 77 70 67 64 61 56 44 39 38 37 38 36 38
62 65 69 72 74 78 81 84 87 91 94 97 99 99 96 95 98 101 104 107 110 113 116 118 118 117 111 95 79 69 63 59 56 51 47 42 37 37 36 33 33 36 31
65 67 71 75 78 81 84 87 90 93 96 94 90 91 94 97 98 99 102 106 111 115 116 116 114 104 88 75 64 56 52 50 46 40 36 34 33 34 33 32 34 27 29
68 71 74 77 80 83 85 88 89 87 85 87 88 90 92 94 98 101 103 107 110 111 110 104 93 78 68 61 54 49 44 42 37 34 29 28 29 31 32 31 29 27 26
72 75 78 81 83 85 87 89 87 85 85 88 90 91 93 96 99 101 102 102 100 102 95 80 71 67 62 55 49 43 39 35 34 29 25 24 24 26 27 27 27 27 23
76 78 80 82 84 87 87 83 83 85 88 90 92 93 95 95 96 97 97 97 100 95 79 66 63 63 57 51 46 41 38 33 30 25 24 23 22 22 24 24 24 25 24
77 79 81 83 85 83 82 82 85 87 90 92 94 96 97 96 95 94 93 95 96 81 66 60 58 59 56 49 42 38 34 31 28 24 24 22 22 21 22 24 23 22 22
78 79 82 82 80 80 81 83 86 88 91 92 95 96 96 96 95 91 91 95 86 70 62 60 59 57 53 46 40 36 32 29 26 25 24 24 23 22 21 23 23 23 19
79 80 78 77 77 80 82 85 87 89 92 94 94 92 91 90 87 87 92 88 73 64 62 61 59 56 51 45 37 33 30 28 25 24 25 24 24 23 23 22 23 23 23
79 77 75 77 79 82 84 87 89 91 93 92 90 89 88 86 84 87 87 75 64 62 62 60 57 54 50 44 38 33 27 27 24 23 24 26 24 23 24 24 23 24 25
75 75 77 79 82 84 86 89 91 92 92 90 87 87 85 82 84 87 78 66 61 61 60 57 54 51 48 44 37 33 29 26 25 23 23 25 26 24 22 22 23 25 25
74 76 79 82 85 88 90 91 92 92 89 85 85 84 81 82 85 80 68 62 60 59 57 55 53 49 47 44 38 33 29 27 25 23 22 22 25 27 26 24 23 24 26
78 80 83 85 88 91 93 94 92 88 84 84 83 80 81 84 81 70 64 62 60 58 57 55 52 49 46 43 38 33 29 27 26 24 23 22 22 25 27 28 27 27 27
Wind_Direction
276 278 281 282 284 287 289 291 293 294 295 295 296 296 297 298 297 298 300 302 300 296 295 295 296 297 296 295 294 294 295 295 295 295 296 296 297 295 294 294 294 294 293
280 280 281 284 288 288 289 291 292 292 291 292 295 295 295 296 299 300 300 299 293 290 289 291 294 295 295 295 295 294 294 293 293 294 293 292 292 291 290 290 289 289 289
284 285 286 287 290 291 293 292 295 298 297 295 296 299 302 304 301 297 294 290 289 291 291 293 293 293 294 293 293 293 291 291 292 292 293 293 292 291 290 289 287 286 285
282 285 287 287 287 290 295 298 298 297 297 299 301 300 300 297 295 292 291 291 289 291 292 293 294 294 294 293 293 293 292 292 292 294 294 294 294 292 291 288 285 283 280
286 286 286 290 292 296 297 298 298 300 300 300 298 296 294 295 295 294 292 292 293 294 294 294 295 295 295 295 295 295 295 295 296 297 296 296 296 293 290 286 285 281 278
286 285 287 298 298 297 300 300 300 298 296 294 294 295 296 295 294 293 294 296 297 296 295 295 295 295 295 296 297 298 299 299 298 297 297 296 294 291 288 284 281 279 275
277 288 295 298 299 297 299 298 296 298 297 296 297 297 295 294 295 298 300 299 299 298 297 296 296 297 297 296 295 297 297 299 299 297 295 294 292 291 288 286 282 281 278
293 293 297 297 296 297 297 296 299 298 297 297 295 296 298 299 300 301 300 298 297 298 299 300 300 299 299 300 299 300 301 299 296 295 296 295 294 293 291 289 285 282 272
295 295 295 295 296 297 297 297 296 297 297 299 301 301 301 302 301 299 299 301 301 301 301 301 301 302 304 303 301 300 298 297 295 295 295 296 294 292 292 287 280 271 266
293 294 294 296 297 296 296 297 298 299 301 304 301 301 302 302 302 302 301 302 303 303 303 305 306 305 303 303 302 301 299 297 296 295 295 295 294 293 286 274 266 263 260
293 294 295 296 298 299 299 300 303 304 302 300 302 303 303 304 305 306 307 307 307 306 307 306 305 304 304 304 304 304 305 304 301 299 298 297 292 282 271 268 270 268 265
293 296 298 299 301 302 304 305 304 302 302 302 302 303 305 307 307 308 309 309 308 308 307 306 306 306 306 306 306 308 308 307 304 301 297 293 285 278 275 270 263 257 252
298 299 301 303 303 304 303 302 302 301 301 302 305 306 307 308 309 309 308 308 307 308 310 310 310 310 311 311 312 311 308 302 297 293 289 286 284 276 265 260 257 255 249
300 301 303 303 303 302 302 302 301 302 305 307 307 307 308 309 309 308 308 309 310 311 312 313 314 316 317 316 314 309 302 297 293 288 286 285 280 267 256 253 256 256 255
301 302 301 301 301 301 302 303 304 306 307 307 307 309 309 309 310 311 312 313 314 316 317 319 320 320 319 315 310 305 299 294 290 289 286 280 274 263 252 254 262 252 256
300 299 300 301 302 303 304 307 309 309 309 311 311 312 312 312 313 314 316 318 319 320 322 323 323 321 317 313 308 302 296 292 293 291 280 272 269 265 256 259 264 254 252
300 300 300 300 301 303 307 307 309 312 313 312 312 313 314 315 316 318 319 320 322 324 326 325 323 319 316 314 310 304 298 297 298 293 275 265 263 264 259 262 259 257 257
300 301 302 303 305 307 307 309 311 311 312 312 313 315 316 318 319 320 321 322 325 327 327 323 322 322 320 316 312 307 303 303 301 289 273 260 262 264 259 259 254 249 260
302 303 304 306 308 309 311 312 313 313 313 313 315 316 318 320 322 322 324 326 328 329 326 323 324 326 321 318 314 309 306 304 302 286 268 258 258 262 256 253 259 245 252
304 306 308 309 311 312 313 313 313 314 315 316 317 318 318 320 322 323 324 326 328 326 324 325 325 327 324 320 314 308 304 301 299 285 266 257 255 257 254 247 254 256 245
308 309 311 312 312 313 313 313 314 315 316 318 318 318 319 322 324 324 325 328 327 323 323 325 326 327 326 323 315 308 301 296 294 284 270 258 256 251 248 248 244 250 239
310 310 311 311 313 313 313 314 315 316 318 318 318 318 320 323 323 324 327 329 323 321 323 324 325 326 325 324 316 307 297 292 292 287 273 261 259 251 243 242 239 242 243
310 311 312 312 312 313 315 316 317 317 317 317 317 319 322 322 322 325 328 325 321 321 321 323 324 325 324 322 317 309 296 286 284 289 277 266 258 250 243 235 235 234 238
310 311 312 313 314 315 316 316 316 316 316 317 319 321 322 321 323 326 325 321 320 320 320 322 323 324 323 320 315 307 298 286 278 285 284 270 261 253 246 240 235 233 231
311 313 313 314 315 315 315 315 315 315 317 318 320 320 320 321 324 323 320 319 318 318 318 318 319 319 319 318 313 306 295 287 277 276 280 277 265 255 247 246 243 238 234
312 313 313 314 314 314 314 313 313 316 317 319 319 318 319 322 322 320 318 318 317 316 316 316 316 315 313 313 309 304 292 284 276 270 273 275 271 262 252 248 247 243 237
Height
5757 5755 5754 5752 5748 5745 5742 5738 5735 5732 5728 5724 5721 5717 5714 5709 5705 5700 5693 5687 5682 5676 5670 5665 5659 5653 5647 5641 5635 5629 5621 5611 5605 5624 5613 5611 5607 5602 5599 5594 5590 5586 5584
5747 5744 5742 5740 5736 5733 5730 5727 5724 5720 5716 5713 5709 5705 5700 5695 5689 5683 5679 5672 5668 5663 5656 5652 5645 5639 5632 5624 5619 5613 5606 5596 5586 5588 5596 5588 5584 5581 5577 5573 5569 5565 5562
5734 5733 5730 5728 5725 5722 5718 5715 5711 5707 5703 5698 5693 5688 5683 5677 5672 5668 5663 5657 5653 5647 5641 5634 5627 5620 5615 5607 5600 5594 5587 5578 5567 5561 5569 5561 5558 5557 5553 5549 5545 5542 5540
5725 5723 5720 5718 5715 5712 5709 5705 5701 5696 5690 5683 5676 5671 5666 5662 5657 5652 5647 5643 5638 5631 5623 5616 5608 5599 5592 5587 5579 5572 5565 5557 5548 5540 5537 5536 5531 5530 5523 5521 5518 5515 5514
5716 5713 5711 5708 5706 5703 5698 5693 5687 5680 5673 5666 5660 5655 5648 5645 5640 5636 5633 5627 5620 5612 5604 5595 5586 5577 5569 5562 5554 5548 5539 5531 5522 5514 5510 5506 5505 5497 5496 5489 5486 5484 5486
5705 5704 5701 5699 5696 5691 5685 5677 5669 5663 5656 5649 5644 5638 5632 5629 5625 5618 5612 5605 5598 5591 5584 5575 5565 5555 5546 5537 5529 5519 5508 5498 5493 5481 5478 5474 5474 5465 5461 5460 5456 5451 5455
5694 5693 5689 5686 5682 5676 5669 5662 5655 5647 5642 5635 5630 5624 5618 5613 5606 5597 5590 5583 5576 5569 5561 5552 5542 5529 5517 5509 5502 5494 5484 5469 5456 5445 5442 5444 5435 5435 5425 5424 5425 5421 5423
5684 5681 5677 5671 5666 5660 5654 5647 5640 5634 5628 5622 5616 5608 5600 5592 5584 5577 5569 5561 5552 5543 5534 5524 5513 5501 5487 5475 5468 5463 5455 5442 5428 5416 5405 5408 5399 5395 5388 5381 5381 5385 5384
5672 5668 5663 5658 5651 5646 5639 5633 5627 5620 5615 5607 5598 5590 5581 5571 5561 5552 5544 5535 5527 5518 5507 5494 5482 5470 5456 5443 5429 5421 5421 5416 5397 5386 5376 5368 5364 5357 5346 5337 5335 5334 5342
5657 5653 5649 5643 5636 5631 5626 5620 5614 5607 5599 5589 5580 5569 5558 5549 5537 5526 5516 5506 5498 5491 5480 5465 5450 5435 5426 5411 5393 5380 5373 5373 5365 5357 5347 5336 5322 5313 5305 5297 5294 5292 5300
5644 5639 5634 5628 5623 5618 5613 5606 5598 5588 5580 5572 5561 5548 5536 5525 5512 5499 5486 5473 5463 5459 5448 5438 5423 5407 5393 5380 5364 5345 5329 5316 5314 5308 5303 5296 5283 5271 5266 5263 5263 5264 5268
5630 5626 5621 5616 5611 5604 5595 5586 5579 5571 5561 5550 5540 5528 5515 5502 5488 5475 5461 5446 5432 5422 5418 5406 5392 5380 5363 5349 5333 5314 5294 5277 5262 5254 5251 5249 5245 5241 5240 5240 5242 5244 5250
5619 5614 5608 5601 5594 5586 5578 5570 5560 5549 5539 5528 5517 5506 5495 5479 5465 5450 5437 5423 5409 5394 5382 5370 5356 5343 5329 5314 5299 5281 5261 5244 5233 5225 5220 5218 5219 5219 5220 5221 5224 5229 5234
5607 5600 5593 5585 5577 5570 5560 5549 5539 5528 5516 5504 5493 5482 5470 5456 5441 5426 5412 5397 5381 5365 5351 5336 5318 5302 5287 5270 5258 5246 5231 5218 5209 5202 5200 5199 5201 5203 5204 5207 5211 5214 5219
5592 5586 5578 5570 5560 5550 5539 5529 5517 5504 5492 5480 5467 5454 5443 5431 5416 5399 5381 5366 5349 5334 5321 5306 5289 5273 5257 5243 5229 5215 5206 5198 5192 5187 5185 5184 5187 5188 5191 5195 5199 5203 5206
5577 5570 5561 5552 5543 5533 5521 5507 5493 5482 5468 5454 5441 5429 5418 5400 5388 5375 5359 5341 5323 5306 5293 5274 5261 5245 5229 5217 5207 5201 5191 5182 5177 5174 5172 5173 5175 5177 5181 5184 5187 5191 5194
5560 5551 5542 5533 5523 5512 5500 5489 5478 5457 5443 5433 5422 5407 5393 5379 5363 5350 5339 5322 5300 5284 5268 5253 5237 5223 5212 5200 5189 5182 5176 5170 5165 5163 5162 5164 5166 5168 5171 5174 5176 5180 5183
5543 5533 5524 5514 5502 5489 5478 5466 5454 5444 5434 5418 5400 5388 5375 5358 5341 5326 5312 5300 5288 5269 5250 5235 5222 5208 5195 5185 5176 5169 5164 5160 5156 5154 5155 5156 5157 5159 5162 5164 5167 5169 5172
5524 5514 5503 5491 5481 5469 5457 5445 5434 5422 5410 5396 5383 5367 5353 5338 5321 5304 5288 5273 5261 5249 5235 5222 5209 5196 5184 5174 5165 5158 5153 5150 5148 5147 5147 5148 5149 5150 5152 5155 5157 5159 5161
5505 5494 5483 5472 5461 5449 5438 5427 5415 5403 5390 5375 5360 5346 5333 5320 5306 5292 5274 5258 5243 5230 5219 5209 5199 5187 5174 5164 5156 5150 5147 5143 5141 5139 5139 5140 5140 5141 5143 5146 5149 5151 5153
5486 5476 5465 5453 5442 5431 5419 5407 5395 5382 5369 5355 5340 5325 5311 5298 5285 5271 5257 5242 5226 5215 5206 5196 5186 5176 5166 5155 5147 5142 5138 5136 5134 5132 5132 5133 5133 5134 5135 5138 5141 5144 5147
5466 5456 5445 5434 5423 5412 5399 5386 5373 5361 5348 5336 5324 5309 5294 5282 5268 5255 5241 5226 5212 5200 5191 5182 5173 5164 5155 5147 5140 5135 5131 5129 5127 5125 5125 5125 5125 5126 5128 5130 5133 5137 5140
5449 5438 5426 5415 5405 5392 5379 5366 5353 5341 5328 5315 5304 5292 5279 5265 5252 5238 5224 5212 5200 5189 5179 5170 5162 5153 5144 5137 5131 5127 5124 5121 5119 5118 5117 5117 5117 5118 5120 5122 5125 5129 5133
5430 5419 5408 5397 5384 5373 5361 5349 5335 5322 5309 5298 5285 5273 5260 5248 5234 5221 5208 5198 5188 5178 5168 5159 5151 5143 5136 5128 5123 5118 5114 5113 5111 5110 5109 5108 5109 5110 5112 5114 5117 5120 5125
5412 5402 5390 5379 5366 5354 5343 5330 5317 5304 5292 5279 5268 5256 5243 5231 5218 5205 5193 5184 5174 5166 5157 5149 5141 5134 5126 5120 5114 5109 5105 5103 5102 5102 5101 5100 5100 5102 5104 5106 5109 5112 5115
5394 5383 5372 5360 5348 5336 5323 5311 5298 5285 5274 5262 5250 5238 5226 5214 5201 5188 5178 5169 5160 5152 5143 5135 5128 5122 5115 5109 5104 5100 5096 5094 5093 5093 5093 5093 5093 5093 5095 5097 5100 5102 5106